AirNav   Jet Aviation Boston
 
 1009 users online  

SC90 Do-Little Field Airport
St Matthews, South Carolina, USA

GOING TO ST MATTHEWS?


FAA INFORMATION EFFECTIVE 19 JULY 2018

Location

FAA Identifier: SC90
Lat/Long: 33-40-34.0000N / 080-56-54.0000W
33-40.566667N / 080-56.900000W
33.6761111 / -80.9483333
(estimated)
Elevation: 369 ft. / 112 m (estimated)
Variation: 05W (1990)
From city: 9 miles W of ST. MATTHEWS, SC
Time zone: UTC -4 (UTC -5 during Standard Time)
Zip code: 29135

Airport Operations

Airport use: Private use. Permission required prior to landing
Activation date: 06/1993
Control tower: no
ARTCC: JACKSONVILLE CENTER
FSS: ANDERSON FLIGHT SERVICE STATION
Attendance: UNATNDD
Wind indicator: yes
Segmented circle: no

Airport Communications

WX ASOS at OGB (14 nm S): 118.525 (803-536-3901)
WX ASOS at CUB (18 nm N): 119.675 (803-929-0665)
WX ASOS at CAE (18 nm NW): PHONE 803-822-4168

Nearby radio navigation aids

VOR radial/distance  VOR name  Freq  Var
CAEr156/12.1COLUMBIA VORTAC114.7002W
MMTr214/16.6MC ENTIRE VORTAC113.2008W
VANr302/27.7VANCE VORTAC110.4006W

 
NDB name  Hdg/Dist  Freq  Var  ID
SUMTER244/34.925207WSMS ... -- ...
AIKEN094/36.434706WAIK .- .. -.-
MANNING284/37.538106WMNI -- -. ..

Airport Services

Runway Information

Runway 14/32

Dimensions: 3200 x 100 ft. / 975 x 30 m
Surface: turf
RUNWAY 14  RUNWAY 32
Traffic pattern: leftright

Airport Ownership and Management from official FAA records

Ownership: Privately-owned
Owner: DO-LITTLE FIELD INC
160 DO LITTLE LANE
ST MATTHEWS, SC 29135
Phone 803-874-4281
Manager: BILL MITCHELL
35 DOOLITTLE LN
ST MATTHEWS, SC 29135
Phone 803-874-1310

Airport Operational Statistics

Aircraft based on the field: 9
Single engine airplanes: 9
    

Instrument Procedures

There are no published instrument procedures at SC90.

Some nearby airports with instrument procedures:

KXNO - North Air Force Auxiliary Field (8 nm SW)
KOGB - Orangeburg Municipal Airport (14 nm S)
KMMT - Mc Entire Joint National Guard Base (16 nm NE)
6J0 - Lexington County Airport at Pelion (16 nm NW)
KCUB - Jim Hamilton L B Owens Airport (18 nm N)
KCAE - Columbia Metropolitan Airport (18 nm NW)
 
Loc | Ops | Rwys | IFR | FBO | Links
Com | Nav | Svcs | Stats | Notes


 
Area around SC90 (Do-Little Field Airport)
 
Road maps at: MapQuest Bing Google
 
Aerial photo
WARNING: Photo may not be current or correct
Aerial photo of SC90 (Do-Little Field Airport)
Photo by Eddie Price
Photo taken 10-Nov-2012
looking west.

Do you have a better or more recent aerial photo of Do-Little Field Airport that you would like to share? If so, please send us your photo.

 
Sectional chart

 
Airport distance calculator
Flying to Do-Little Field Airport? Find the distance to fly.

From to SC90

Sunrise and sunset
Times for 20-Jul-2018
 Local
(UTC-4)
 Zulu
(UTC)
Morning civil twilight06:0010:00
Sunrise06:2910:29
Sunset20:3200:32
Evening civil twilight21:0001:00

Current date and time
Zulu (UTC)  20-Jul-2018 12:36:46
Local (UTC-4)  20-Jul-2018 08:36:46
 
METAR
KXNO 
8nm SW 
201211Z AUTO 03005KT 10SM SCT008 SCT014 BKN020 OVC060 23/22 A2999 RMK AO2 SLP155 $
KOGB 
13nm S 
201220Z AUTO VRB03KT 4SM RA BR SCT012 BKN022 OVC070 23/22 A2998 RMK AO2 P0006 T02280217
KMMT 
17nm NE 
201216Z 07006KT 10SM BKN013 BKN075 24/22 A2999 RMK AO2A SLP156 $
KCAE 
18nm NW 
201156Z 08007KT 10SM OVC065 26/23 A2998 RMK AO2 SLP150 60001 70001 T02560228 10261 20244 53008
KCUB 
18nm N 
201153Z AUTO VRB03KT 10SM OVC070 25/22 A2999 RMK AO2 SLP153 60000 T02500217 10256 20244 53006
TAF
KOGB 
13nm S 
201131Z 2012/2112 07006KT 6SM -RA BR BKN015 TEMPO 2012/2015 4SM -SHRA BKN007 FM201800 05008KT P6SM VCSH SCT015 BKN025 FM210300 VRB03KT 4SM BR BKN015
KMMT 
17nm NE 
201050Z 2010/2113 08003KT 9000 -SHRA FEW017 BKN060 BKN250 QNH2994INS TEMPO 2010/2013 OVC015 BECMG 2015/2016 07009KT 9999 NSW BKN020 BKN250 QNH2995INS BECMG 2019/2020 03009KT 9999 BKN035 BKN250 QNH2997INS BECMG 2023/2024 02003KT 9999 BKN035 BKN250 QNH2997INS TX31/2020Z TN23/2010Z
KCAE 
18nm NW 
201131Z 2012/2112 06008KT P6SM VCSH SCT015 BKN050 TEMPO 2012/2014 BKN025 FM201400 06008KT P6SM VCSH BKN025 TEMPO 2015/2019 -RA BKN015 FM201900 08007KT P6SM VCSH BKN050 FM210000 VRB03KT P6SM BKN080
KCUB 
18nm N 
201131Z 2012/2112 06004KT P6SM VCSH SCT015 BKN050 TEMPO 2012/2014 BKN025 FM201400 06006KT P6SM VCSH BKN025 TEMPO 2015/2019 -RA BKN015 FM201900 08006KT P6SM VCSH BKN050 FM210000 VRB03KT P6SM BKN080
NOTAMs
Click for the latest NOTAMs
NOTAMs are issued by the DoD/FAA and will open in a separate window not controlled by AirNav.

 

 
 

Would you like to see your business listed on this page?

 If your business provides an interesting product or service to pilots, flight crews, aircraft, or users of the Do-Little Field Airport, you should consider listing it here.  To start the listing process, click on the button below
 
Add a business
 

Other Pages about Do-Little Field Airport

Update a link
 
Copyright © AirNav, LLC. All rights reserved. Privacy Policy  Contact